User: anonymous   Login
Location: Newark
(16.3678°N, 77.8722°E)
Time: 13:49:32
(UTC+00:00)
Language:

SR - Orbit

View from above orbital plane
View from above orbital plane
View from above satellite
View from above satellite

Ground track
Ground track

The orbit data is extracted from the following two-line orbital elements,

1    46U 60007B   19340.89165114 -.00000072 +00000-0 +91822-5 0  9992
2    46 066.6895 209.5249 0217410 275.2819 082.3517 14.49261414111063
Epoch (UTC): 06 December 2019 21:23:58
Eccentricity: 0.0217410
inclination: 66.6895°
perigee height: 573 km
apogee height: 882 km
right ascension of ascending node: 209.5249°
argument of perigee: 275.2819°
revolutions per day: 14.49261414
mean anomaly at epoch: 82.3517°
orbit number at epoch: 11106

The dashed part of the orbit path shows where the satellite is in the earth's shadow,  

DLR